| time (UTC) | temp C | wind direction | speed KPH | gust KPH | rain 1hr cm | rain 24hr cm | rain mn cm | humidity % | barometer mb |
| 20260505011100 | 8 | 247 | 16.1 | 38.6 | 0.00 | 2.16 | 1.60 | 79 | 1002.5 |
| 20260505010042 | 8 | 210 | 14.5 | 43.5 | 0.00 | 2.24 | 1.60 | 79 | 1002.4 |
| 20260505005019 | 8 | 235 | 11.3 | 22.5 | 0.00 | 2.31 | 1.60 | 79 | 1002.3 |
| 20260505004030 | 8 | 229 | 14.5 | 27.4 | 0.00 | 2.36 | 1.60 | 78 | 1002.2 |
| 20260505003051 | 8 | 234 | 14.5 | 35.4 | 0.00 | 2.44 | 1.60 | 78 | 1001.9 |
| 20260505002101 | 8 | 215 | 17.7 | 35.4 | 0.00 | 2.51 | 1.60 | 77 | 1001.7 |
| 20260505001032 | 8 | 243 | 16.1 | 33.8 | 0.00 | 2.59 | 1.60 | 76 | 1001.5 |
| 20260505000043 | 8 | 237 | 16.1 | 38.6 | 0.00 | 2.62 | 1.60 | 75 | 1001.4 |
| 20260504235024 | 8 | 237 | 16.1 | 27.4 | 0.00 | 2.69 | 1.60 | 73 | 1001.1 |
| 20260504234035 | 9 | 225 | 16.1 | 30.6 | 0.00 | 2.72 | 1.60 | 72 | 1000.8 |
| 20260504233045 | 9 | 220 | 14.5 | 30.6 | 0.00 | 2.74 | 1.60 | 72 | 1000.7 |
| 20260504232025 | 8 | 231 | 17.7 | 33.8 | 0.00 | 2.79 | 1.60 | 71 | 1000.6 |
| 20260504231037 | 9 | 226 | 16.1 | 30.6 | 0.00 | 2.87 | 1.60 | 69 | 1000.4 |
| 20260504230106 | 10 | 204 | 17.7 | 33.8 | 0.00 | 2.95 | 1.60 | 66 | 1000.2 |
| 20260504225100 | 10 | 232 | 17.7 | 46.7 | 0.00 | 3.02 | 1.60 | 63 | 1000.0 |
| 20260504224042 | 10 | 226 | 16.1 | 35.4 | 0.00 | 3.12 | 1.60 | 64 | 1000.0 |
| 20260504223121 | 10 | 221 | 19.3 | 33.8 | 0.00 | 3.17 | 1.60 | 63 | 1000.0 |
| 20260504222100 | 10 | 223 | 17.7 | 33.8 | 0.00 | 3.20 | 1.60 | 62 | 1000.0 |
| 20260504221041 | 10 | 246 | 16.1 | 41.8 | 0.00 | 3.23 | 1.60 | 59 | 999.8 |
| 20260504220021 | 11 | 244 | 22.5 | 46.7 | 0.00 | 3.28 | 1.60 | 57 | 999.8 |
| 20260504215031 | 10 | 238 | 22.5 | 41.8 | 0.00 | 3.33 | 1.60 | 58 | 999.8 |
| 20260504214042 | 10 | 198 | 25.7 | 46.7 | 0.00 | 3.38 | 1.60 | 55 | 999.7 |
| 20260504213124 | 11 | 225 | 20.9 | 46.7 | 0.00 | 3.43 | 1.60 | 53 | 999.5 |
| 20260504212105 | 11 | 234 | 24.1 | 49.9 | 0.00 | 3.45 | 1.60 | 53 | 999.6 |
| 20260504211117 | 11 | 205 | 17.7 | 41.8 | 0.00 | 3.56 | 1.60 | 57 | 999.5 |
| 20260504210025 | 12 | 258 | 20.9 | 38.6 | 0.00 | 3.63 | 1.60 | 56 | 999.1 |
| 20260504205055 | 12 | 234 | 16.1 | 33.8 | 0.00 | 3.68 | 1.60 | 56 | 999.3 |
| 20260504204118 | 13 | 225 | 17.7 | 41.8 | 0.00 | 3.73 | 1.60 | 53 | 999.2 |
| 20260504203233 | 12 | 209 | 17.7 | 41.8 | 0.00 | 3.81 | 1.60 | 54 | 999.0 |
| 20260504202038 | 12 | 201 | 17.7 | 30.6 | 0.00 | 3.86 | 1.60 | 55 | 999.1 |
| 20260504201122 | 12 | 218 | 20.9 | 51.5 | 0.00 | 3.94 | 1.60 | 53 | 999.1 |
| 20260504200131 | 13 | 237 | 16.1 | 35.4 | 0.00 | 3.99 | 1.60 | 52 | 998.8 |
| 20260504195039 | 13 | 233 | 12.9 | 30.6 | 0.00 | 4.06 | 1.60 | 52 | 998.8 |
| 20260504194050 | 13 | 237 | 14.5 | 35.4 | 0.00 | 4.11 | 1.60 | 51 | 998.7 |
| 20260504193030 | 13 | 232 | 17.7 | 33.8 | 0.00 | 4.14 | 1.60 | 50 | 998.6 |
| 20260504192113 | 13 | 219 | 19.3 | 43.5 | 0.00 | 4.14 | 1.60 | 52 | 998.6 |
| 20260504191124 | 12 | 218 | 16.1 | 30.6 | 0.00 | 4.19 | 1.60 | 55 | 998.5 |
| 20260504190124 | 13 | 190 | 14.5 | 30.6 | 0.00 | 4.22 | 1.60 | 53 | 998.5 |
| 20260504185115 | 13 | 209 | 17.7 | 38.6 | 0.00 | 4.22 | 1.60 | 52 | 998.2 |
| 20260504184023 | 13 | 252 | 12.9 | 43.5 | 0.00 | 4.24 | 1.60 | 50 | 998.3 |
| 20260504183035 | 13 | 201 | 14.5 | 24.1 | 0.00 | 4.27 | 1.60 | 51 | 998.2 |
| 20260504182147 | 13 | 220 | 12.9 | 30.6 | 0.00 | 4.27 | 1.60 | 52 | 998.3 |
| 20260504181045 | 13 | 254 | 17.7 | 43.5 | 0.00 | 4.27 | 1.60 | 54 | 998.3 |
| 20260504180036 | 13 | 180 | 16.1 | 38.6 | 0.00 | 4.29 | 1.60 | 56 | 998.4 |
| 20260504175017 | 12 | 237 | 14.5 | 27.4 | 0.00 | 4.29 | 1.60 | 57 | 998.2 |
| 20260504174027 | 12 | 266 | 17.7 | 38.6 | 0.00 | 4.29 | 1.60 | 59 | 998.3 |
| 20260504173112 | 12 | 244 | 17.7 | 46.7 | 0.00 | 4.32 | 1.60 | 60 | 998.3 |
| 20260504172019 | 12 | 253 | 19.3 | 43.5 | 0.00 | 4.32 | 1.60 | 59 | 998.1 |
| 20260504171030 | 12 | 221 | 14.5 | 41.8 | 0.00 | 4.32 | 1.60 | 55 | 998.1 |
| 20260504160105 | 11 | 220 | 11.3 | 22.5 | 0.00 | 4.47 | 1.60 | 65 | 997.4 |
| 20260504151128 | 10 | 248 | 16.1 | 46.7 | 0.00 | 4.55 | 1.60 | 70 | 997.0 |
| 20260504141041 | 7 | 249 | 14.5 | 24.1 | 0.00 | 4.55 | 1.60 | 80 | 996.4 |
| 20260504110226 | 4 | 290 | 11.3 | 24.1 | 0.10 | 4.50 | 1.55 | 96 | 992.4 |
| 20260504100143 | 3 | 272 | 9.7 | 16.1 | 0.13 | 4.39 | 1.45 | 96 | 991.1 |
| 20260504081102 | 1 | 300 | 17.7 | 24.1 | 0.30 | 4.01 | 1.07 | 97 | 987.6 |
| 20260504050138 | 2 | 345 | 27.4 | 54.7 | 0.15 | 3.33 | 0.38 | 96 | 982.3 |
| 20260504045038 | 2 | 344 | 30.6 | 72.4 | 0.18 | 3.30 | 0.36 | 96 | 982.1 |
| 20260504044200 | 2 | 346 | 29.0 | 66.0 | 0.18 | 3.28 | 0.33 | 96 | 981.8 |
| 20260504043119 | 2 | 331 | 27.4 | 51.5 | 0.18 | 3.25 | 0.30 | 96 | 981.9 |
| 20260504042146 | 2 | 331 | 25.7 | 35.4 | 0.20 | 3.23 | 0.28 | 96 | 981.7 |
| 20260504041212 | 2 | 334 | 20.9 | 35.4 | 0.23 | 3.20 | 0.25 | 96 | 981.7 |
| 20260504040034 | 2 | 340 | 38.6 | 72.4 | 0.23 | 3.17 | 0.23 | 96 | 981.4 |
| 20260504035114 | 2 | 320 | 30.6 | 51.5 | 0.20 | 3.12 | 0.18 | 97 | 981.5 |
| 20260504034022 | 2 | 338 | 38.6 | 69.2 | 0.23 | 3.10 | 0.15 | 96 | 981.5 |
| 20260504033225 | 2 | 338 | 32.2 | 61.2 | 0.25 | 3.07 | 0.13 | 96 | 981.6 |
| 20260504032216 | 2 | 339 | 33.8 | 57.9 | 0.23 | 3.02 | 0.08 | 96 | 981.8 |
| 20260504031024 | 2 | 334 | 41.8 | 74.0 | 0.23 | 2.97 | 0.03 | 97 | 981.8 |
| 20260504030036 | 2 | 5 | 40.2 | 62.8 | 0.25 | 2.95 | 0.00 | 97 | 981.9 |
| 20260504025046 | 2 | 356 | 32.2 | 62.8 | 0.28 | 2.92 | 2.92 | 96 | 982.1 |
| 20260504024102 | 2 | 344 | 37.0 | 74.0 | 0.28 | 2.87 | 2.87 | 97 | 982.3 |
| 20260504023036 | 2 | 339 | 37.0 | 72.4 | 0.25 | 2.82 | 2.82 | 97 | 982.6 |
| 20260504022016 | 2 | 328 | 35.4 | 62.8 | 0.30 | 2.79 | 2.79 | 96 | 983.0 |
| 20260504021029 | 2 | 336 | 35.4 | 62.8 | 0.36 | 2.74 | 2.74 | 96 | 983.3 |
| 20260504020038 | 1 | 342 | 40.2 | 61.2 | 0.38 | 2.69 | 2.69 | 96 | 983.6 |
| 20260504015121 | 2 | 350 | 33.8 | 66.0 | 0.41 | 2.64 | 2.64 | 96 | 983.9 |
| 20260504014030 | 2 | 351 | 45.1 | 74.0 | 0.41 | 2.59 | 2.59 | 96 | 984.2 |
| 20260504013040 | 2 | 336 | 41.8 | 62.8 | 0.46 | 2.57 | 2.57 | 96 | 984.3 |
| 20260504012051 | 2 | 340 | 33.8 | 62.8 | 0.46 | 2.49 | 2.49 | 96 | 984.5 |